This is the latest recevied weather packets stored in our database for station/object N6RDS. If no packets are shown the sender has not sent any weather packets the latest 10 day(s).
| Time | Temp. | Humidity | Pressure | Rain* | Wind** | Luminosity | Snow |
|---|---|---|---|---|---|---|---|
| 1777843749 | 20.56° C | 29% | 1023.7 hPa | 0 mm | - | 185 W/m² | - |
| 1777843447 | 20.56° C | 31% | 1023.8 hPa | 0 mm | - | 290 W/m² | - |
| 1777843144 | 22.22° C | 29% | 1023.6 hPa | 0 mm | - | 279 W/m² | - |
| 1777842840 | 21.67° C | 30% | 1023.6 hPa | 0 mm | - | 466 W/m² | - |
| 1777842535 | 21.67° C | 31% | 1023.9 hPa | 0 mm | - | 647 W/m² | - |
| 1777842232 | 22.22° C | 30% | 1023.9 hPa | 0 mm | - | 665 W/m² | - |
| 1777841928 | 21.67° C | 29% | 1024 hPa | 0 mm | - | 658 W/m² | - |
| 1777841625 | 21.67° C | 30% | 1024.4 hPa | 0 mm | - | 272 W/m² | - |
| 1777841321 | 22.22° C | 29% | 1024 hPa | 0 mm | - | 427 W/m² | - |
| 1777841018 | 21.67° C | 28% | 1024.3 hPa | 0 mm | - | 859 W/m² | - |
| 1777840716 | 20.56° C | 28% | 1024.4 hPa | 0 mm | - | 788 W/m² | - |
| 1777840413 | 21.11° C | 29% | 1024.2 hPa | 0 mm | - | 832 W/m² | - |
| 1777840110 | 21.67° C | 30% | 1024.4 hPa | 0 mm | - | 118 W/m² | - |
| 1777839808 | 22.22° C | 32% | 1024.2 hPa | 0 mm | - | 824 W/m² | - |
| 1777839506 | 21.67° C | 31% | 1024.4 hPa | 0 mm | - | 848 W/m² | - |
| 1777839202 | 20° C | 30% | 1024.5 hPa | 0 mm | - | 138 W/m² | - |
| 1777838900 | 21.11° C | 29% | 1024.5 hPa | 0 mm | - | 465 W/m² | - |
| 1777838596 | 21.11° C | 28% | 1024.7 hPa | 0 mm | - | 842 W/m² | - |
| 1777838294 | 22.22° C | 29% | 1024.7 hPa | 0 mm | - | 152 W/m² | - |
| 1777837990 | 22.22° C | 28% | 1024.8 hPa | 0 mm | - | 844 W/m² | - |
| 1777837687 | 21.11° C | 29% | 1024.9 hPa | 0 mm | - | 887 W/m² | - |
| 1777837383 | 21.11° C | 28% | 1025 hPa | 0 mm | - | 643 W/m² | - |
| 1777837079 | 20.56° C | 31% | 1025 hPa | 0 mm | - | 830 W/m² | - |
| 1777836775 | 20.56° C | 30% | 1025 hPa | 0 mm | - | 847 W/m² | - |
| 1777836471 | 19.44° C | 31% | 1025.3 hPa | 0 mm | - | 862 W/m² | - |
* Rain latest hour (hover to see other rain measurements)
** Current wind speed in m/s (hover to see current wind gust speed)